Regional Weather Roundup
Issued by NWS Cleveland, OH

Home | Current Version | Previous Version | Graphics & Text | Print | Product List | Glossary On
Versions: 1 2 3 4 5 6 7 8 9 10 11 12 13 14 15 16 17 18 19 20 21 22 23 24 25 26 27 28 29 30 31 32 33 34 35 36 37 38 39 40 41 42 43 44 45 46 47 48 49 50
000
ASUS41 KCLE 301910
RWRCLE
OHIO REGIONAL WEATHER ROUNDUP
NATIONAL WEATHER SERVICE WILMINGTON, OH
300 PM EDT TUE AUG 30 2016

NOTE: "FAIR" INDICATES FEW OR NO CLOUDS BELOW 12,000 FEET WITH NO
SIGNIFICANT WEATHER AND/OR OBSTRUCTIONS TO VISIBILITY.

OHZ001>008-015>018-024>027-034-035-043-044-302000-
   NORTHWEST OHIO

CITY           SKY/WX    TMP DP  RH WIND       PRES   REMARKS
DEFIANCE       FAIR      85  66  53 CALM      30.11F
FINDLAY        FAIR      86  63  45 S7        30.11F
TOLEDO EXPRESS FAIR      82  64  54 SW3       30.11F
TOLEDO EXEC    FAIR      84  59  42 VRB3      30.12F
LIMA           FAIR      85  70  60 S5        30.13F
$$

OHZ009>014-019>023-028>033-038-089-302000-
   NORTHEAST OHIO

CITY           SKY/WX    TMP DP  RH WIND       PRES   REMARKS
CLE-HOPKINS    PTSUNNY   86  59  39 N9        30.14F
CLE-LAKEFRONT  FAIR      81  62  52 N7        30.11F
CUY CO. ARPT   PTSUNNY   82  64  54 NE9       30.14F
LORAIN-ELYRIA  FAIR      82  56  40 CALM      30.13F
ASHTABULA      FAIR      80  60  50 SW3       30.15F
AKRON-CANTON   FAIR      85  48  27 CALM      30.13F
WOOSTER        FAIR      85  59  41 VRB3      30.14F
MANSFIELD      FAIR      87  61  41 MISG      30.15F
YOUNGSTOWN     PTSUNNY   82  54  37 VRB5      30.14F
$$

OHZ042-051>053-060>062-070>072-077>081-302000-
  SOUTHWEST OHIO

CITY           SKY/WX    TMP DP  RH WIND       PRES   REMARKS
CINC-COVINGTON FAIR      88  64  44 E8        30.12F
CINC-LUNKEN    FAIR      87  66  49 NE7       30.10F
HAMILTON       FAIR      89  62  40 CALM      30.11F
DAYTON         PTSUNNY   85  64  49 CALM      30.14F
WRIGHT-PAT AFB FAIR      85  61  43 E5        30.12F
DAYTON GENERAL FAIR      86  64  47 E6        30.12F
WILMINGTON     FAIR      84  64  50 SE3       30.13F
$$

OHZ036-037-039>041-045>050-054>059-063>069-073>076-082>088-302000-
  CENTRAL AND SOUTHEAST OHIO

CITY           SKY/WX    TMP DP  RH WIND       PRES   REMARKS
COLUMBUS       FAIR      85  61  44 E3        30.12F
OSU AIRPORT    FAIR      87  61  41 S7        30.12F
BOLTON FIELD   SUNNY     84  66  54 S5        30.14F
RICKENBACK AFB FAIR      84  63  49 CALM      30.12F
NEWARK         FAIR      87  59  38 S5        30.12F
MARION         FAIR      84  61  45 SW3       30.14F
LANCASTER      FAIR      87  62  43 VRB3      30.12F
ZANESVILLE     FAIR      88  59  37 VRB5      30.12F
NEW PHILLY     FAIR      90  47  22 CALM      30.12F
$$




USA.gov is the U.S. government's official web portal to all federal, state and local government web resources and services.